一网星座-0041星 (ONEWEB-0041 )

导读 | 星芒AI

ONEWEB-0041 是 OneWeb 卫星星座计划中的一颗低轨通信卫星,旨在为全球提供高速互联网服务。该卫星由阿丽亚娜集团制造,采用统一平台设计,具备高容量和高可靠性。作为 OneWeb 扩展其全球宽带网络的一部分,该卫星于2022年发射,运行在约1200公里高的近地轨道。ONEWEB-0041 与其他卫星协同工作,支持偏远和农村地区的互联网接入,提升全球数字连接能力。

基本信息
目录编号:
45148
目录名称:
ONEWEB-0041
国际标识:
2020-008T
轨道中心:
EARTH
卫星名称:
一网星座-0041星
卫星全名:
一网星座-0041星 (ONEWEB-0041 )
卫星状态:
在轨 (已飞行2137 天)
发射日期:
2020-02-06 UTC
国别 :
英国 (GB)
星等 :
--
轨道信息
数据来源 国际轨道数据
星历时间: 2025-12-13T05:23:09+0800
12小时前
查看轨道信息
半长轴: 7455.621km
偏心率: 0.0018921
轨道倾角: 87.933°
近地点辐角 52.666°
升交点赤经 42.736°
平近点角 307.620°
近地点: 1063.379km
远地点: 1091.593km
周期: 106.779分钟
每日圈数: 13.48581
详细信息
平衡模式:
三轴稳定
覆盖范围:
全球
运营商:
一网卫星公司
运营商所在国:
英国
制造商(研发单位):
一网卫星公司
制造商所在国:
英国
使用方式:
暂无
卫星简介
OneWeb卫星网络由648颗重约125公斤的微型卫星组成,运行在1200公里的轨道上。 每颗卫星都能够提供至少每秒8千兆位的吞吐量,以使用其高吞吐量的Ku频段有效载荷为家庭和移动平台提供互联网接入。该卫星已退役。
2D轨道图
3D轨道图
轨道高度分析图
轨道倾角分析图
轨道综合分析图
查看轨道综合分析图